Simultaneous Nadir Overpasses (SNOs) Predictions

Prediction of SNOs between GOES-14 and NOAA-20 Satellite Orbit:

Table of predicted SNOs for the next 14.0 days since TLE Epoch: 8/10/2024
Index Date Time (GOES-14) GOES-14 Lat,Lon NOAA-20 Lat,Lon Distance(km) Time Diff (sec)
1 08/10/2024 08:51:18 0.06,-108.44 0.68,-111.34 329.58 80
2 08/11/2024 08:29:53 0.06,-108.43 -0.31,-106.80 185.81 80
3 08/12/2024 20:51:49 -0.06,-108.38 -0.87,-112.11 424.43 80
4 08/13/2024 20:35:44 -0.05,-108.37 0.13,-107.58 91.28 80
5 08/16/2024 08:36:05 0.04,-108.39 0.05,-108.31 9.31 80
6 08/18/2024 20:39:15 -0.03,-108.32 -0.19,-109.09 87.59 80
7 08/19/2024 20:23:10 -0.03,-108.31 0.82,-104.56 428.02 80
8 08/21/2024 08:44:56 0.02,-108.34 0.34,-109.82 168.77 80
9 08/22/2024 08:23:31 0.03,-108.33 -0.67,-105.29 346.53 80
10 08/23/2024 20:45:25 -0.02,-108.26 -0.55,-110.59 265.11 80
